ISS (ZARYA) 1 25544U 98067A 25349.89461712 .00006813 00000+0 12896-3 0 9997 2 25544 51.6305 126.8563 0003169 254.4589 105.6050 15.49611341543340 CSS (TIANHE) 1 48274U 21035A 25349.72502975 .00014504 00000+0 18267-3 0 9996 2 48274 41.4685 358.5824 0007901 56.1338 304.0252 15.59304358264497 ISS (NAUKA) 1 49044U 21066A 25349.89461712 .00006813 00000+0 12896-3 0 9993 2 49044 51.6305 126.8563 0003169 254.4589 105.6050 15.49611341230445 FREGAT DEB 1 49271U 11037PF 25348.99994365 .00003993 00000+0 91248-2 0 9990 2 49271 51.6465 192.7466 0862629 228.5969 123.7581 12.34460752202219 CSS (WENTIAN) 1 53239U 22085A 25349.72502975 .00014504 00000+0 18267-3 0 9999 2 53239 41.4685 358.5824 0007901 56.1338 304.0252 15.59304358173842 CSS (MENGTIAN) 1 54216U 22143A 25349.72502975 .00014504 00000+0 18267-3 0 9990 2 54216 41.4685 358.5824 0007901 56.1338 304.0252 15.59304358158649 SHENZHOU-20 (SZ-20) 1 63632U 25082A 25349.72502975 .00014504 00000+0 18267-3 0 9997 2 63632 41.4685 358.5824 0007901 56.1338 304.0252 15.59304358255302 PROGRESS-MS 31 1 64751U 25146A 25349.89461712 .00006813 00000+0 12896-3 0 9998 2 64751 51.6305 126.8563 0003169 254.4589 105.6050 15.49611341 6752 TIANZHOU-9 1 64786U 25149A 25349.72502975 .00014504 00000+0 18267-3 0 9992 2 64786 41.4685 358.5824 0007901 56.1338 304.0252 15.59304358255303 CREW DRAGON 11 1 65077U 25166A 25349.89461712 .00006813 00000+0 12896-3 0 9992 2 65077 51.6305 126.8563 0003169 254.4589 105.6050 15.49611341 2143 DRAGON CRS-33 1 65304U 25186A 25349.89461712 .00006813 00000+0 12896-3 0 9997 2 65304 51.6305 126.8563 0003169 254.4589 105.6050 15.49611341 111 PROGRESS-MS 32 1 65586U 25204A 25349.89461712 .00006813 00000+0 12896-3 0 9990 2 65586 51.6305 126.8563 0003169 254.4589 105.6050 15.49611341 270 CYGNUS NG-23 1 65616U 25208A 25349.89461712 .00006813 00000+0 12896-3 0 9998 2 65616 51.6305 126.8563 0003169 254.4589 105.6050 15.49611341 229 DRAGONFLY 1 65729U 98067XH 25349.66187528 .00139257 00000+0 98919-3 0 9990 2 65729 51.6241 120.7881 0007015 296.9718 63.0564 15.72920321 13620 1998-067XK 1 65731U 98067XK 25349.73336798 .00078692 00000+0 74239-3 0 9990 2 65731 51.6281 122.0366 0004812 264.6574 95.3872 15.66333624 13610 RSP-03 1 65732U 98067XL 25349.41416620 .00103156 00000+0 85709-3 0 9997 2 65732 51.6255 122.8946 0005630 270.0098 90.0254 15.69333488 13588 GHS-01 1 65733U 98067XM 25349.73472232 .00180872 00000+0 11102-2 0 9999 2 65733 51.6274 119.7831 0007599 301.7085 58.3173 15.76152522 13653 YOTSUBA-KULOVER 1 65941U 98067XN 25349.78814575 .00053323 00000+0 65176-3 0 9996 2 65941 51.6281 124.6502 0001457 281.9175 78.1654 15.59882351 10335 BOTAN 1 65942U 98067XP 25349.65896850 .00082884 00000+0 87407-3 0 9994 2 65942 51.6278 124.5376 0002929 262.4016 97.6646 15.63514528 10322 E-KAGAKU-1 1 65943U 98067XQ 25349.66009928 .00052357 00000+0 64091-3 0 9994 2 65943 51.6292 125.2990 0001636 221.4661 138.6208 15.59851021 10310 HRC MONOBLOCK CAMERA 1 66052U 98067XR 25349.93029392 .00030802 00000+0 46657-3 0 9992 2 66052 51.6289 125.5959 0002885 198.9504 161.1379 15.54370373 9338 HTV-X1 1 66174U 25241A 25349.89461712 .00006813 00000+0 12896-3 0 9995 2 66174 51.6305 126.8563 0003169 254.4589 105.6050 15.49611341 511 SZ-21 MODULE 1 66515U 25246C 25349.73492091 .00020523 00000+0 22577-3 0 9997 2 66515 41.4776 357.7735 0006167 275.8419 84.1717 15.62644262 4917 SHENZHOU-22 1 66645U 25272A 25349.72502975 .00014504 00000+0 18267-3 0 9995 2 66645 41.4685 358.5824 0007901 56.1338 304.0252 15.59304358263577 SOYUZ-MS 28 1 66664U 25275A 25349.89461712 .00006813 00000+0 12896-3 0 9996 2 66664 51.6305 126.8563 0003169 254.4589 105.6050 15.49611341 1280 1998-067XS 1 66906U 98067XS 25349.69380656 .00020263 00000+0 35287-3 0 9993 2 66906 51.6303 127.7667 0003289 216.5725 143.5040 15.50732342 2071 1998-067XT 1 66907U 98067XT 25349.81796831 .00050230 00000+0 82637-3 0 9992 2 66907 51.6296 127.0953 0004121 244.2963 115.7601 15.51845045 2094 1998-067XU 1 66908U 98067XU 25349.75307051 .00049466 00000+0 81150-3 0 9996 2 66908 51.6291 127.4116 0004237 243.4196 116.6360 15.51929885 2088 SILVERSAT 1 66909U 98067XV 25349.62370561 .00048941 00000+0 79995-3 0 9990 2 66909 51.6296 128.0480 0004116 244.8670 115.1892 15.52037636 2060 1998-067XW 1 66910U 98067XW 25349.68641401 .00044307 00000+0 72313-3 0 9991 2 66910 51.6293 127.7170 0004767 223.5527 136.5086 15.52120253 2079 1998-067XX 1 66911U 98067XX 25349.55639860 .00053353 00000+0 85851-3 0 9996 2 66911 51.6293 128.3487 0004472 225.8375 134.2248 15.52435494 2045 1998-067XY 1 66912U 98067XY 25349.62640120 .00035151 00000+0 59034-3 0 9996 2 66912 51.6298 128.0660 0004277 239.2298 120.8270 15.51430232 2058